Home   Weather   Bloemfontein   Past weeks

Flag for South Africa Past Weather in Bloemfontein, South Africa — Yesterday and Last 2 Weeks

Now
32 °F

Chilly.


Feels Like: 32 °F
Forecast: 31 / 69 °F
Wind: 1 mph from South

Location: Bloemfontein Airport

Current Time: Jul 28, 2017 at 3:02:23 am

Latest Report: Jul 28, 2017 at 2:00 am


Visibility: N/A

Pressure: 30.45 "Hg (25.57 "Hg at 1397m altitude)

Humidity: 55%

Dew Point: 18 °F

Location of BloemfonteinLocation

Past Weather in Bloemfontein — Graph

°F

Bloemfontein Temperature Yesterday

Maximum temperature yesterday: 68 °F (at 2:00 pm)
Minimum temperature yesterday: 25 °F (at 7:00 am)
Average temperature yesterday: 44 °F

High & Low Weather Summary for the Past Weeks

 TemperatureHumidityPressure
High72 °F (Jul 25, 2:00 pm)93% (Jul 16, 11:00 pm)30.51 "Hg (Jul 16, 11:00 pm)
Low21 °F (Jul 17, 7:00 am)6% (Jul 23, 3:00 pm)30.01 "Hg (Jul 15, 12:31 am)
Average46 °F38%30.28 "Hg
* Reported Jul 13 2:00 am — Jul 28 2:00 am, Bloemfontein. Weather by CustomWeather, © 2017

Note: Actual official high and low records may vary slightly from our data, if they occured in-between our weather recording intervals... More about our weather records

Advertising

Bloemfontein Weather History for the Previous 24 Hours

Scroll right to see more
 ConditionsComfort  
Time TempWeatherWind HumidityBarometerVisibility
2:00 am
Fri, Jul 28
32 °FChilly.1 mph55%30.45 "HgN/A
1:00 am34 °FChilly.1 mph51%30.48 "HgN/A
12:00 am36 °FChilly.No wind48%30.45 "Hg6 mi
11:00 pm
Thu, Jul 27
37 °FChilly.2 mph45%30.45 "HgN/A
10:00 pm39 °FChilly.5 mph42%30.45 "HgN/A
9:00 pm41 °FQuite cool.3 mph42%30.42 "HgN/A
8:00 pm46 °FClear.2 mph34%30.42 "Hg10 mi
7:00 pm48 °FPassing clouds.3 mph29%30.42 "HgN/A
6:00 pm61 °FClear.3 mph19%30.39 "Hg10 mi
5:00 pm68 °FSunny.1 mph12%30.42 "Hg10 mi
4:00 pm68 °FPassing clouds.5 mph16%30.39 "HgN/A
3:00 pm68 °FPassing clouds.5 mph16%30.39 "HgN/A
2:00 pm68 °FPassing clouds.8 mph17%30.42 "HgN/A
1:00 pm66 °FSunny.3 mph24%30.42 "Hg10 mi
12:00 pm63 °FPassing clouds.6 mph37%30.45 "HgN/A
11:00 am59 °FPassing clouds.7 mph48%30.48 "HgN/A
10:00 am52 °FPassing clouds.8 mph62%30.51 "HgN/A
9:00 am45 °FSunny.1 mph61%30.48 "Hg10 mi
8:43 am43 °FSunny.2 mph61%30.48 "Hg10 mi
8:11 am37 °FPassing clouds.3 mph56%30.45 "HgN/A
8:00 am34 °FSunny.3 mph41%30.45 "Hg10 mi
7:00 am25 °FClear.2 mph50%30.42 "Hg10 mi
6:00 am27 °FClear.2 mph46%30.42 "Hg10 mi
5:00 am27 °FClear.3 mph50%30.42 "Hg10 mi
4:00 am27 °FChilly.2 mph43%30.39 "HgN/A
3:00 am27 °FChilly.2 mph43%30.39 "HgN/A
Weather by CustomWeather, © 2017

See weather overviewHow to use our weather pages